Regional Weather Roundup
Issued by NWS

Home | Current Version | Previous Version | Graphics & Text | Print | Product List | Glossary On
Versions: 1 2 3 4 5 6 7 8 9 10 11 12 13 14 15 16 17 18 19 20 21 22 23 24 25 26 27 28 29 30 31 32 33 34 35 36 37 38 39 40 41 42 43 44 45 46 47 48 49 50
000
ASUS45 KBOU 271107
RWRCO

WEATHER ROUNDUP FOR COLORADO
NATIONAL WEATHER SERVICE DENVER/BOULDER CO
500 AM MDT MON APR 27 2015

NOTE: "FAIR" INDICATES FEW OR NO CLOUDS BELOW 12000 FEET WITH NO
SIGNIFICANT WEATHER AND/OR OBSTRUCTIONS TO VISIBILITY.

COZ001>005-013-030-031-271200-
...NORTHWEST COLORADO...

CITY           SKY/WX    TMP DP  RH WIND       PRES   REMARKS
CRAIG          CLOUDY    40  38  93 SW5       30.09R
HAYDEN         CLOUDY    39  36  87 W3        30.08R
MEEKER         CLOUDY    40  37  89 SW5       30.09R
MOUNT WERNER   NOT AVBL
STEAMBOAT SPGS CLOUDY    35  35  97 CALM      30.08S
WALDEN         CLEAR     27  25  93 SE6       30.11S WCI  20
$$

COZ006>008-011-271200-
...WEST CENTRAL VALLEYS...

CITY           SKY/WX    TMP DP  RH WIND       PRES   REMARKS
GRAND JUNCTION CLOUDY    46  40  79 N6        30.02R
MONTROSE       CLOUDY    43  39  86 CALM      30.05R
EAGLE          CLEAR     34  32  93 E7        30.09R WCI  28
RIFLE          MOCLDY    42  37  82 W3        30.05R
DELTA          CLOUDY    41  40  93 MISG      30.03R
NUCLA          CLEAR     36  34  93 SE3       30.05R
$$

COZ017>023-064>068-271200-
...SOUTHWEST COLORADO...

CITY           SKY/WX    TMP DP  RH WIND       PRES   REMARKS
DURANGO        PTCLDY    31  31 100 NW6       29.97R WCI  25
CORTEZ         CLEAR     34  32  92 CALM      29.98R
PAGOSA SPRINGS PTCLDY    35  32  92 NE6       30.00R WCI  29
TELLURIDE      CLOUDY    32  32  99 CALM      30.07R
WOLF CREEK PAS NOT AVBL
$$

COZ009-010-012-014-032>034-037-058>063-271200-
...CENTRAL COLORADO...

CITY           SKY/WX    TMP DP  RH WIND       PRES   REMARKS
ASPEN          PTCLDY    32  31  96 CALM      30.06R
BUENA VISTA    CLOUDY    33  32  96 SE6       30.11R WCI  28
COPPER MTN     PTCLDY    28  19  69 E6        30.15S WCI  22
BERTHOUD PASS  HAZE      19  12  73 E5G16     30.19R VSB<1/4 WCI  13
COTTONWOOD PAS LGT SNOW  32  32 100 SE8       30.13R WCI  25
GUNNISON       PTCLDY    30  27  86 CALM      30.09R
KREMMLING      CLEAR     28  27  93 CALM      30.12R
LEADVILLE      CLOUDY    25  25 100 CALM      30.11R FOG
MONARCH PASS   CLOUDY    23  21  93 MISG      30.19S
SALIDA         CLOUDY    36  35  96 CALM      30.19R
SUNLIGHT       CLOUDY    32  32 100 NE5       30.15S WCI  27
WILKERSON PASS CLOUDY   N/A N/A N/A NE8       30.16R FOG
$$

COZ069>075-271200-
...SAN LUIS VALLEY/SANGRE DE CRISTO MOUNTAINS...

CITY           SKY/WX    TMP DP  RH WIND       PRES   REMARKS
ALAMOSA        CLOUDY    35  31  85 NW7       30.02R WCI  29
LA VETA PASS   LGT SNOW  27  23  86 MISG      30.06S VSB 3/4
SAGUACHE       CLOUDY    37  30  75 NW6       30.05R
$$

COZ035-036-038>040-271200-
...NORTHERN COLORADO FRONT RANGE...

CITY           SKY/WX    TMP DP  RH WIND       PRES   REMARKS
DENVER INTL AP CLOUDY    38  38 100 N8        30.14R FOG
DMNS CITY PARK   N/A     39  38  96 N3        30.14S
AURORA         DRIZZLE   37  37 100 N9        30.14S
FRONT RANGE AP LGT RAIN  39  37  93 N7        30.14S
ERIE MUNI ARPT CLOUDY    40  40  99 NE3       30.15S FOG
BOULDER MUN AP CLOUDY    37  37 100 NE3       30.15R
CENTENNIAL     LGT RAIN  38  37  97 N8        30.13R FOG
BROOMFIELD     CLOUDY    37  37 100 N6        30.15R
FORT COLLINS   CLOUDY    39  37  93 NE7       30.18R
LONGMONT       CLOUDY    42  40  92 CALM      30.17R
$$

COZ041-046-047-076>085-087-088-271200-
...PIKES PEAK/PALMER DIVIDE AND SOUTHERN FOOTHILLS...

CITY           SKY/WX    TMP DP  RH WIND       PRES   REMARKS
COLO. SPRINGS  CLOUDY    39  37  92 N5        30.11R
A. F. ACADEMY  MOCLDY    36  36  99 N12       30.10S
ELLICOTT       CLOUDY   N/A N/A N/A NE14      30.09R
FALCON         CLOUDY    36  35  98 N13       30.11S
FORT CARSON    CLOUDY    39  38  95 N12       30.09R
LIMON          LGT RAIN  36  34  92 NW7       30.12R
MONUMENT HILL  DRIZZLE   34  32  93 N8        30.12R WCI  27
TRINIDAD       LGT RAIN  40  38  93 N14       30.03S FOG
$$

COZ042>045-048>051-090-091-271200-
...NORTHEAST COLORADO...

CITY           SKY/WX    TMP DP  RH WIND       PRES   REMARKS
GREELEY ARPT   CLOUDY    39  34  81 N6        30.17R
AKRON          CLOUDY    41  41 100 NE9       30.14R FOG
BURLINGTON     CLOUDY    43  41  93 NE13      30.11R
WRAY           CLOUDY    45  45  98 NE7       30.15R
STERLING       CLOUDY    43  43 100 NE3       30.15R FOG
HOLYOKE        CLOUDY    46  43  87 NE8       30.16R
FORT MORGAN    CLOUDY    41  40  95 NE6       30.16R FOG
$$

COZ086-089-092>099-271200-
...SOUTHEAST COLORADO...

CITY           SKY/WX    TMP DP  RH WIND       PRES   REMARKS
PUEBLO         LGT RAIN  43  41  93 NE6       30.09R
LA JUNTA       LGT RAIN  42  40  92 NE14      30.06S FOG
LAMAR          LGT RAIN  43  42  97 NE10      30.04S FOG
SPRINGFIELD      N/A     39  39 100 N20       29.99S
$$



USA.gov is the U.S. government's official web portal to all federal, state and local government web resources and services.